FENGYUN 3F

Last updated on Mon Jun 22 2026 00:02:46 GMT+0000 (Coordinated Universal Time)

1 57490U 23111A 26172.48399582 .00000011 00000+0 25698-4 0 9994 2 57490 98.6835 242.4127 0001582 90.3874 269.7484 14.19939702149475
UTC large
Height (km)
Speed (km/s)
/
Latitude / Longitude
Inclination (degrees)
Orbital Period (minutes)
Azimuth
Elevation
Range (km)
Doppler Factor

Next 0 passes for location: London (51.5072 / 0.1276)

No passes found over London.
FENGYUN 3F